Temp
80 79 78 78 73 69 65 64 64 63 63 62 63 61 61 61 62 66 71 71 71 71 74 74 76 73 71 75 76 77 77 77
82 78 77 76 74 69 64 62 61 60 60 61 60 59 59 60 62 67 71 71 73 73 73 71 72 71 71 73 75 73 74 76
79 77 76 75 74 68 62 61 60 59 61 62 64 61 59 61 61 63 70 72 75 74 74 71 71 74 73 72 71 72 74 74
79 76 75 75 74 70 68 62 60 60 60 61 62 61 60 58 59 60 64 67 75 74 72 72 71 73 70 70 72 72 71 72
82 77 76 75 74 73 72 68 62 62 62 62 61 63 60 64 61 61 62 63 72 72 67 66 71 72 71 70 73 71 71 68
82 80 78 78 76 72 72 68 66 64 64 62 62 62 64 65 64 63 64 64 67 66 68 66 65 71 70 69 69 69 71 65
84 83 81 79 77 74 72 68 67 65 62 62 62 61 64 61 62 62 64 66 67 68 68 66 64 65 67 68 68 68 68 69
83 81 79 79 76 73 72 70 66 65 62 62 63 63 63 63 63 62 62 64 66 68 68 68 67 65 66 68 68 68 69 67
83 82 79 79 76 75 74 70 70 65 62 62 62 64 65 66 64 64 63 65 68 68 68 69 70 69 65 67 69 69 69 68
83 83 81 79 77 75 74 73 72 69 64 62 62 64 64 65 67 65 63 67 70 69 69 69 70 70 70 70 68 66 68 65
84 84 81 80 80 79 75 75 74 72 70 66 64 64 67 66 67 66 66 67 71 71 70 68 68 68 68 71 69 69 68 69
84 84 83 81 81 79 76 75 75 74 72 69 66 66 69 67 68 70 70 70 71 71 69 69 69 69 70 68 70 71 70 69
85 84 84 81 80 79 77 76 76 76 75 73 70 70 70 68 70 71 72 71 72 73 73 71 71 71 71 70 69 71 70 69
83 84 83 82 80 79 78 77 76 77 77 75 73 72 72 72 72 72 73 73 73 73 73 73 73 72 72 72 71 71 71 71
83 83 83 83 82 81 80 78 77 77 77 75 74 72 72 73 73 73 73 74 73 71 70 72 72 73 73 72 72 71 70 71
80 82 84 85 83 82 82 80 79 77 77 76 74 74 74 73 73 73 73 72 73 73 72 72 72 72 73 71 71 70 70 69
75 76 80 82 84 84 82 81 80 79 76 76 77 75 74 73 73 72 71 71 71 71 71 71 70 72 58 51 60 70 70 69
71 73 75 76 79 81 82 84 82 79 77 76 76 76 74 73 73 72 71 70 71 70 70 70 69 70 52 48 47 67 67 68
69 70 72 74 76 78 79 83 83 80 78 77 77 76 75 74 72 71 71 70 70 69 69 69 69 70 50 47 45 60 63 65
MSLP
1003.58 1004.74 1005.68 1006.36 1007.48 1008.64 1009.52 1010.24 1010.85 1011.42 1011.95 1012.63 1013.00 1013.54 1013.92 1014.73 1015.51 1015.65 1016.14 1016.78 1017.09 1017.46 1017.09 1017.82 1018.11 1018.46 1018.64 1019.03 1019.14 1019.49 1019.65 1019.70
1002.96 1004.35 1005.41 1006.24 1007.05 1008.31 1009.32 1010.02 1010.91 1011.63 1012.09 1012.53 1013.18 1013.72 1014.46 1015.25 1015.54 1015.36 1015.75 1016.29 1016.92 1016.94 1017.55 1018.22 1018.33 1018.50 1018.63 1019.03 1019.41 1019.77 1019.80 1020.03
1002.42 1003.94 1004.86 1005.74 1006.45 1007.84 1009.10 1009.78 1010.60 1011.32 1011.88 1012.22 1013.02 1013.78 1014.48 1015.16 1015.62 1015.96 1015.59 1015.86 1016.35 1016.72 1017.15 1017.86 1018.39 1018.17 1018.56 1019.09 1019.43 1019.66 1019.70 1020.05
1001.50 1003.13 1004.23 1005.19 1005.84 1007.21 1008.16 1009.45 1010.24 1010.99 1011.52 1012.47 1013.02 1013.88 1014.66 1015.35 1015.60 1015.87 1015.64 1015.88 1015.51 1016.36 1016.92 1017.30 1017.86 1017.93 1018.28 1018.89 1019.32 1019.17 1019.22 1019.89
1000.35 1002.07 1003.34 1004.36 1005.33 1006.60 1007.51 1008.50 1009.78 1010.42 1011.29 1011.58 1012.31 1012.66 1013.19 1013.97 1014.76 1015.48 1015.64 1015.96 1015.65 1016.10 1016.28 1017.24 1017.63 1017.68 1018.09 1018.59 1018.88 1019.01 1019.11 1019.38
999.32 1000.80 1002.28 1003.45 1004.64 1006.03 1006.98 1007.86 1008.83 1009.86 1010.49 1011.24 1011.91 1012.37 1012.96 1013.42 1014.32 1015.07 1015.65 1015.99 1015.95 1016.18 1016.62 1017.63 1017.64 1017.44 1017.77 1017.97 1018.41 1018.88 1018.90 1019.35
998.50 999.95 1001.38 1002.57 1003.95 1005.17 1006.20 1007.26 1008.11 1009.19 1010.04 1010.70 1011.18 1011.78 1012.24 1013.02 1013.47 1014.17 1014.58 1015.15 1015.40 1015.98 1016.52 1016.61 1016.98 1017.41 1017.66 1017.66 1018.28 1018.62 1018.73 1018.93
997.91 999.26 1000.55 1001.64 1002.98 1004.30 1005.47 1006.54 1007.44 1008.45 1009.43 1010.03 1010.55 1011.07 1011.61 1012.25 1012.70 1013.27 1013.88 1014.21 1014.45 1014.84 1015.47 1015.77 1016.25 1016.82 1017.41 1017.53 1017.57 1017.92 1018.07 1018.23
997.36 998.42 999.89 1001.03 1002.09 1003.11 1004.25 1005.55 1006.46 1007.73 1008.62 1009.30 1010.00 1010.50 1010.82 1011.44 1012.17 1012.48 1013.05 1013.28 1013.59 1014.22 1014.71 1014.96 1015.33 1015.95 1016.53 1017.51 1017.03 1017.43 1017.37 1017.52
996.73 997.76 999.05 1000.25 1001.32 1002.19 1003.11 1004.16 1005.28 1006.55 1007.64 1008.56 1009.15 1009.78 1010.19 1010.50 1011.03 1011.87 1012.43 1012.76 1013.09 1013.50 1013.88 1014.20 1014.37 1014.86 1015.44 1016.04 1016.29 1016.20 1016.14 1016.48
995.84 996.97 998.15 999.53 1000.51 1001.55 1002.74 1003.35 1003.98 1005.15 1006.33 1007.34 1008.18 1008.77 1009.27 1009.76 1010.18 1010.76 1011.45 1011.78 1012.03 1012.33 1012.73 1013.34 1013.77 1013.99 1014.28 1014.66 1015.01 1015.21 1015.39 1015.47
995.48 996.45 997.53 999.00 999.95 1000.84 1002.05 1002.88 1003.21 1003.91 1005.07 1006.10 1007.05 1007.75 1008.16 1008.82 1009.13 1009.52 1010.04 1010.59 1011.01 1011.46 1012.03 1012.59 1012.79 1013.11 1013.53 1013.65 1013.67 1014.02 1014.29 1014.64
995.46 996.23 997.04 998.28 999.20 1000.12 1000.99 1002.02 1002.54 1002.96 1003.78 1004.73 1005.52 1006.31 1006.99 1007.48 1007.78 1008.06 1008.56 1009.01 1009.66 1010.05 1010.56 1011.21 1011.56 1011.82 1012.32 1012.55 1012.70 1012.78 1013.08 1013.21
995.90 996.31 996.91 997.73 998.62 999.39 1000.13 1001.00 1001.68 1002.31 1002.89 1003.63 1004.31 1004.79 1005.27 1005.56 1005.91 1006.70 1007.34 1007.85 1008.32 1008.94 1009.23 1009.52 1009.80 1010.26 1010.72 1011.03 1011.29 1011.51 1011.77 1011.85
996.01 996.53 996.91 997.42 998.15 998.78 999.33 999.94 1000.83 1001.43 1001.96 1002.45 1003.01 1003.55 1003.99 1004.48 1005.12 1005.63 1006.08 1006.50 1007.10 1007.59 1008.03 1008.44 1008.85 1009.26 1009.61 1009.93 1010.17 1010.30 1010.42 1010.54
996.72 996.53 996.45 996.78 997.59 998.16 998.64 999.20 999.84 1000.57 1001.00 1001.38 1001.53 1002.59 1003.34 1003.89 1004.31 1004.71 1005.20 1005.63 1005.82 1006.25 1006.72 1007.14 1007.58 1007.93 1008.07 1008.42 1008.73 1008.97 1009.22 1009.43
998.71 998.38 997.68 997.22 997.04 997.11 997.70 998.19 998.79 999.68 1000.10 1000.07 1000.82 1001.42 1002.08 1002.54 1003.02 1003.55 1004.16 1004.46 1004.78 1005.32 1005.50 1005.72 1006.08 1006.27 1006.47 1007.03 1007.67 1007.78 1008.00 1008.14
999.76 999.50 999.20 998.92 998.38 997.85 997.32 997.06 997.77 998.33 998.85 999.46 999.86 1000.17 1000.71 1001.21 1001.93 1002.53 1002.85 1003.28 1003.97 1004.11 1004.46 1004.87 1005.03 1005.39 1005.72 1006.35 1006.98 1007.47 1007.54 1007.44
1000.70 1000.58 1000.29 1000.00 999.43 998.68 998.13 997.29 996.92 997.29 997.83 998.28 998.80 999.18 999.57 1000.15 1000.70 1001.10 1001.58 1002.23 1002.73 1003.26 1003.71 1004.18 1004.58 1004.44 1004.92 1005.58 1006.27 1006.91 1006.97 1006.83
Wind_Speed
11 11 11 13 14 11 11 10 12 7 7 7 7 6 8 8 8 9 13 10 9 5 7 7 7 6 5 7 8 8 8 8
12 11 11 12 15 13 12 11 13 9 8 9 8 8 9 8 6 8 15 13 14 9 7 7 6 6 7 6 7 8 7 7
13 13 13 13 13 14 12 11 14 11 9 7 9 9 8 8 4 4 9 15 15 12 10 9 10 6 9 9 8 8 8 7
16 16 15 13 14 14 15 13 14 12 11 7 7 8 7 7 6 5 6 7 12 12 9 8 10 8 6 9 10 11 8 8
16 17 16 16 14 13 15 16 17 15 17 14 16 14 14 14 12 8 7 10 12 11 8 4 9 8 11 11 10 8 7 8
16 18 17 16 15 14 14 16 17 17 15 14 14 15 11 9 12 14 13 13 14 10 13 14 8 8 9 8 9 9 7 7
15 17 17 16 15 14 13 14 15 17 16 16 18 18 16 11 13 13 12 11 11 16 17 13 11 7 12 8 10 11 8 7
15 18 17 17 18 16 15 17 17 16 15 17 18 19 18 19 18 14 14 13 10 15 16 14 13 14 13 12 10 10 9 9
15 19 18 18 19 19 18 18 18 17 16 17 15 17 11 14 16 13 12 13 14 14 15 15 17 16 12 15 10 11 10 9
16 18 19 19 19 20 19 19 19 19 18 16 16 16 16 15 18 15 13 15 13 16 16 17 17 17 18 17 11 11 11 9
16 17 19 18 17 17 18 18 19 20 20 17 15 17 18 15 14 17 18 17 18 16 17 17 18 16 17 17 14 15 12 11
10 15 17 17 16 17 17 18 18 19 19 19 19 16 20 16 17 19 20 20 19 19 17 17 18 18 18 15 16 16 17 17
10 13 15 17 17 17 18 18 18 18 18 19 20 20 20 19 20 19 19 20 20 21 19 20 21 20 20 20 20 18 20 20
1 8 11 14 16 17 17 18 19 18 18 19 17 18 19 22 22 20 19 19 20 20 19 21 20 20 20 20 22 22 21 20
3 5 7 11 13 15 17 18 18 18 19 19 20 20 20 18 18 18 19 19 19 19 20 20 19 20 20 20 21 21 21 20
15 10 6 8 10 12 15 16 18 18 19 21 21 18 18 19 18 19 18 19 18 20 20 20 21 20 17 22 22 22 21 21
14 16 16 12 9 10 13 15 17 18 20 20 18 18 19 20 20 19 18 19 20 19 20 20 20 16 19 19 19 18 20 19
15 13 13 13 13 11 12 12 14 18 19 19 19 18 19 20 19 19 20 20 18 20 20 19 21 20 17 17 17 17 17 17
16 15 15 15 15 14 13 11 12 16 18 19 19 18 19 18 19 21 19 17 19 17 18 19 18 16 14 17 18 16 17 19
Wind_Direction
189 191 183 188 165 173 167 167 162 139 130 127 133 124 119 139 174 187 167 162 160 175 140 157 170 176 156 189 186 192 179 188
176 184 183 183 169 177 174 170 156 150 163 149 154 148 147 153 182 199 167 161 175 173 160 165 202 183 173 191 187 190 185 190
177 184 189 192 181 174 168 170 163 162 170 173 155 150 155 154 156 231 200 169 184 175 180 170 214 187 190 183 189 186 189 188
184 189 195 191 190 186 177 168 165 158 167 156 144 137 142 162 177 209 210 222 209 182 184 183 192 218 183 184 201 197 191 181
189 189 194 190 194 180 187 174 176 177 174 173 172 173 172 186 186 180 205 224 219 195 161 197 211 219 187 195 191 203 214 191
195 189 193 190 183 179 196 173 180 186 182 177 179 184 189 175 188 189 189 206 221 219 179 198 227 209 212 184 193 205 213 226
197 186 188 184 180 179 186 177 185 180 181 181 185 191 188 183 187 191 194 201 202 206 211 190 192 214 218 195 193 203 209 218
195 186 189 186 180 182 182 185 183 181 187 185 192 192 192 195 187 191 192 204 208 208 201 192 191 193 221 211 191 204 208 220
198 192 190 192 186 185 186 186 189 182 185 190 189 199 202 196 195 195 202 204 209 205 205 206 201 198 193 226 205 213 209 214
204 197 191 194 190 190 190 185 192 193 188 193 196 196 200 198 198 196 203 208 211 209 206 210 206 204 202 210 227 228 224 219
190 198 191 196 193 189 194 195 194 192 195 194 196 199 204 201 201 200 206 213 214 210 206 204 210 213 215 220 225 230 226 221
190 200 191 195 194 195 196 204 200 195 194 196 199 201 208 203 211 207 208 208 208 213 208 213 213 214 219 224 229 228 227 229
194 197 192 194 200 198 200 202 209 204 195 199 200 199 205 207 211 213 212 211 214 215 212 212 217 218 219 223 228 231 230 233
358 191 198 200 205 206 209 206 211 209 206 204 204 206 206 207 209 210 212 212 214 219 217 221 221 221 222 223 227 229 233 236
210 186 202 208 213 215 214 214 211 212 210 209 209 209 211 214 213 211 212 213 216 216 220 228 227 229 230 231 232 234 238 239
346 350 235 211 218 225 221 222 216 214 217 214 216 210 214 216 217 215 215 215 217 216 219 219 224 228 229 228 232 235 240 243
345 339 333 340 311 228 219 224 219 213 221 224 218 213 210 215 215 215 217 218 216 220 222 223 225 227 225 216 228 236 238 239
346 338 329 322 319 323 291 240 216 217 219 227 223 217 215 214 213 215 217 217 217 220 223 223 228 229 220 212 211 234 244 245
354 351 339 331 322 313 308 289 260 220 225 224 225 220 220 217 212 216 218 215 217 219 222 224 232 233 208 205 205 224 235 241